Powrót do katalogu

SL-12 R/B

AUX MOTOR

AktywnyHEO
NORAD 37143·ROCKET BODY·🇷🇺 Russia

Wystrzelony Sep 2, 2010 z Baikonur Cosmodrome

Loading…

Następne Przeloty (najbliższe 24 godziny)

TLE

ŚwieżeSource: Space-Track

Epoka: Sep 14, 2026, 11:47 UTC

1 37143U 10041G   26257.49151204  .00042333  00000-0  21969-2 0  9996
2 37143  64.4360  64.8143 3202229 267.3931  56.2768  8.95287873290046

Śledź SL-12 R/B w czasie rzeczywistym z AllMySat

Download on the App Store